Location: Gu�tanj
(46.5431°N, 14.9692°E)
Time: 13:22:40
(UTC+00:00)

Okean 3 - Pass Details

Date: 03 March 2021
Orbit: 577 x 600 km, 82.5° (Epoch: 14 April)

Event Time Altitude Azimuth Distance (km) Brightness Sun altitude
Rises 18:36:15 0° 354° (N) 2,832 7.2 -19.2°
Reaches altitude 10° 18:38:30 10° 359° (N) 1,930 6.2 -19.5°
Maximum altitude 18:42:42 56° 78° (ENE) 710 3.5 -20.2°
Enters shadow 18:42:59 55° 96° (E) 720 3.5 -20.3°
